TJS-14

Last updated on Sun Apr 12 2026 00:02:57 GMT+0000 (Coordinated Universal Time)

1 62804U 25017A 26101.52433074 .00000116 00000+0 00000+0 0 9999 2 62804 0.9389 291.6770 0001532 82.2502 32.9890 1.00276599 4603
UTC large
Height (km)
Speed (km/s)
/
Latitude / Longitude
Inclination (degrees)
Orbital Period (minutes)
Azimuth
Elevation
Range (km)
Doppler Factor

Next 0 passes for location: London (51.5072 / 0.1276)

Sorry there are no passes over London.
TJS-14